Погода в Полтаве

Украина / Полтавская область     49°35′22″N   34°33′04″E
темп.,
°C
ветер,
м/с
пор.,
м/с
влажн.,
%
обл.,
%
осадки,
мм/ч
давл.,
гПа
погр.,
м
31 июля, сб
сб3100:00+21сз45590 0.0 100969
03:00+20с33640 0.0 101040
06:00+19св22670 0.0 101116
09:00+26ссз11450 0.0 1011506
12:00+30сз22330 0.0 10112169
15:00+32сз33303 0.0 10102573
18:00+31ссз333016 0.0 10102517
21:00+25с11440 0.0 101111
1 августа, вс
вс100:00+23юз11510 0.0 101211
03:00+21в11550 0.0 101211
06:00+21юв11560 0.0 101211
09:00+29ююв33380 0.0 1012474
12:00+33ю232885 0.0 10113204
15:00+34ююв332592 0.0 10113121
18:00+32ю452779 0.0 1010923
21:00+26ю35410 0.0 101065
2 августа, пн
пн200:00+24ююз36495 0.0 101080
03:00+23ююз33506 0.0 101032
06:00+22ю34545 0.0 101166
09:00+29ююз47425 0.0 1011617
12:00+34юз782898 0.0 10102488
15:00+36ююз672492 0.0 10082919
18:00+35ююз78261 0.0 10062896
21:00+24ю41164100 1.3 1007154
3 августа, вт
вт300:00+21з228639 2.2 100931
03:00+19зюз46925 2.2 1009126
06:00+18зсз389519 0.1 1011303
09:00+21сз56705 0.1 1012772
12:00+25сз664422 0.0 10131485
15:00+27ссз56353 0.0 10132256
18:00+27сз563315 0.0 10132385
21:00+20с36546 0.0 101594
4 августа, ср
ср400:00+18сз11614 0.0 101611
03:00+19зсз1159100 0.0 101714
06:00+18юз22630 0.0 101822
09:00+24з00445 0.0 1018618
12:00+28зсз233189 0.0 10172368
15:00+30сз2226100 0.0 10162825
18:00+29зюз0227100 0.0 10152732
21:00+24ююз2239100 0.0 101530